Tracking 18957 objects as of 22-Jan-2018
HD Live streaming from Space Station
objects crossing your sky now

FLOCK 2EP 20

Track FLOCK 2EP 20 now!
10-day predictions
FLOCK 2EP 20 is classified as:


NORAD ID: 41782
Int'l Code: 1998-067KQ
Perigee: 360.4 km
Apogee: 365.9 km
Inclination: 51.6 °
Period: 91.7 minutes
Semi major axis: 6734 km
RCS: Unknown
Launch date: November 20, 1998
Source: United States (US)
Launch site: TYURATAM MISSILE AND SPACE COMPLEX (TTMTR)
aabbcc
Your satellite tracking list
Your tracking list is empty




NASA's NSSDC Master Catalog

Two Line Element Set (TLE):
1 41782U 98067KQ  18022.48051493  .00023974  00000-0  19118-3 0  9997
2 41782  51.6364 355.6258 0004088  38.9596 321.1696 15.71017134 77083
Source of the keplerian elements: AFSPC